{"data":{"norad_id":47805,"epoch":"2026-05-24T23:45:00.650304Z","epoch_age_seconds":75926,"freshness":"FRESH","line1":"1 47805U 21018U   26144.98959086  .00051395  00000+0  22591-2 0  9990","line2":"2 47805  53.1050 246.1516 0001957 358.6209   1.4781 15.21421279288429","mean_motion":15.21421279,"eccentricity":0.0001957,"inclination_deg":53.105,"raan_deg":246.1516,"arg_perigee_deg":358.6209,"mean_anomaly_deg":1.4781,"bstar":0.0022591,"rev_number":28842,"period_min":94.648340987217,"perigee_km":500.20634823963,"apogee_km":502.89905878958,"semimajor_km":6879.6897035146,"source":"CELESTRAK","updated_at":"2026-05-25T13:38:16.600733Z"}}